{"data":{"norad_id":67145,"intl_designator":"2025-301N","name":"KUIPER-00204","alt_names":[],"object_type":"PAYLOAD","status":"ACTIVE","operator":null,"country":"US","launch_date":"2025-12-16","launch_site_code":"AFETR","launch_vehicle":null,"mission":null,"orbit_class":"UNKNOWN","rcs_meters":null,"size_class":null,"mass_kg":null,"dimensions":null,"purposes":[],"wikipedia_slug":null,"has_3d_model":false,"image_url":null,"decayed_at":null,"tle_current":{"epoch":"2026-05-25T04:00:03.998880Z","epoch_age_seconds":63814,"freshness":"FRESH","line1":"1 67145U 25301N   26145.16671295 -.01758166  00000+0 -14688+0 0  9990","line2":"2 67145  51.8944  68.2019 0001518 318.6473 219.0240 15.01687371  5719","mean_motion":15.01687371,"eccentricity":0.0001518,"inclination_deg":51.8944,"raan_deg":68.2019,"arg_perigee_deg":318.6473,"mean_anomaly_deg":219.024,"bstar":-0.14688,"rev_number":571,"period_min":95.892129600922,"perigee_km":560.6393802584,"apogee_km":562.74631259978,"semimajor_km":6939.8298464291,"source":"CELESTRAK","updated_at":"2026-05-25T13:38:06.751470Z"}}}